User: anonymous   Login
Location: Cerroniocc
(13.7547°S, 72.0222°W)
Time: 08:57:22
(UTC+00:00)
Language:

Cosmos 1626 - Orbit

View from above orbital plane
View from above orbital plane
View from above satellite
View from above satellite

Ground track
Ground track

The orbit data is extracted from the following two-line orbital elements,

1 15494U 85009A   20272.86678484 +.00001282 +00000-0 +51125-4 0  9990
2 15494 082.4774 127.5623 0002911 136.2980 223.8488 15.24283188951131
Epoch (UTC): 28 September 2020 20:48:10
Eccentricity: 0.0002911
inclination: 82.4774°
perigee height: 491 km
apogee height: 495 km
right ascension of ascending node: 127.5623°
argument of perigee: 136.2980°
revolutions per day: 15.24283188
mean anomaly at epoch: 223.8488°
orbit number at epoch: 95113

The dashed part of the orbit path shows where the satellite is in the earth's shadow,  

DLR